Time,TemperatureF,DewpointF,PressureIn,WindDirection,WindDirectionDegrees,WindSpeedMPH,WindSpeedGustMPH,Humidity,HourlyPrecipIn,Conditions,Clouds,dailyrainin,SoftwareType,DateUTC
2013-02-17 00:00:00,40.7,34.7,30.47,South,180,2.9,3.4,79,0.00,,---,0.00,VWS V14.01,2013-02-17 08:00:00,
2013-02-17 00:05:00,40.7,34.7,30.47,South,180,0.9,0.9,79,0.00,,---,0.00,VWS V14.01,2013-02-17 08:05:00,
2013-02-17 00:10:00,40.5,34.5,30.47,South,180,4.7,4.7,79,0.00,,---,0.00,VWS V14.01,2013-02-17 08:10:00,
2013-02-17 00:15:00,40.7,34.7,30.47,South,180,0.2,0.2,79,0.00,,---,0.00,VWS V14.01,2013-02-17 08:15:00,
2013-02-17 00:20:00,40.7,34.7,30.47,South,180,0.9,0.9,79,0.00,,---,0.00,VWS V14.01,2013-02-17 08:20:00,
2013-02-17 00:25:00,40.7,34.7,30.47,South,180,6.7,6.7,79,0.00,,---,0.00,VWS V14.01,2013-02-17 08:25:00,
2013-02-17 00:30:00,40.7,34.7,30.48,South,180,0.0,0.0,79,0.00,,---,0.00,VWS V14.01,2013-02-17 08:30:00,
2013-02-17 00:35:00,40.3,34.6,30.48,South,180,1.8,1.8,80,0.00,,---,0.00,VWS V14.01,2013-02-17 08:35:00,
2013-02-17 00:40:00,40.1,34.4,30.48,South,180,0.2,0.2,80,0.00,,---,0.00,VWS V14.01,2013-02-17 08:40:00,
2013-02-17 00:45:00,40.0,34.3,30.48,South,180,0.7,1.8,80,0.00,,---,0.00,VWS V14.01,2013-02-17 08:45:00,
2013-02-17 00:50:00,40.0,34.3,30.48,South,180,1.8,1.8,80,0.00,,---,0.00,VWS V14.01,2013-02-17 08:50:00,
2013-02-17 00:55:00,40.0,34.3,30.48,South,180,3.4,3.4,80,0.00,,---,0.00,VWS V14.01,2013-02-17 08:55:00,
2013-02-17 01:00:00,40.1,34.8,30.47,South,180,1.8,1.8,81,0.00,,---,0.00,VWS V14.01,2013-02-17 09:00:00,
2013-02-17 01:05:00,40.1,34.8,30.48,South,180,0.4,0.4,81,0.00,,---,0.00,VWS V14.01,2013-02-17 09:05:00,
2013-02-17 01:10:00,40.0,34.3,30.48,South,180,1.1,1.1,80,0.00,,---,0.00,VWS V14.01,2013-02-17 09:10:00,
2013-02-17 01:15:00,39.8,34.1,30.48,South,180,0.9,0.9,80,0.00,,---,0.00,VWS V14.01,2013-02-17 09:15:00,
2013-02-17 01:20:00,39.8,34.1,30.48,South,180,1.1,1.1,80,0.00,,---,0.00,VWS V14.01,2013-02-17 09:20:00,
2013-02-17 01:25:00,39.8,34.1,30.47,South,180,3.1,4.0,80,0.00,,---,0.00,VWS V14.01,2013-02-17 09:25:00,
2013-02-17 01:30:00,40.0,34.3,30.47,South,180,0.7,0.7,80,0.00,,---,0.00,VWS V14.01,2013-02-17 09:30:00,
2013-02-17 01:35:00,40.1,34.1,30.47,South,180,1.6,1.6,79,0.00,,---,0.00,VWS V14.01,2013-02-17 09:35:00,
2013-02-17 01:40:00,40.1,34.4,30.48,South,180,0.9,0.9,80,0.00,,---,0.00,VWS V14.01,2013-02-17 09:40:00,
2013-02-17 01:45:00,40.0,34.3,30.48,South,180,1.3,1.3,80,0.00,,---,0.00,VWS V14.01,2013-02-17 09:45:00,
2013-02-17 01:50:00,40.0,34.0,30.48,South,180,1.8,1.8,79,0.00,,---,0.00,VWS V14.01,2013-02-17 09:50:00,
2013-02-17 01:55:00,40.0,34.0,30.48,South,180,0.7,0.7,79,0.00,,---,0.00,VWS V14.01,2013-02-17 09:55:00,
2013-02-17 02:00:00,39.8,34.1,30.48,South,180,1.3,1.3,80,0.00,,---,0.00,VWS V14.01,2013-02-17 10:00:00,
2013-02-17 02:05:00,39.8,34.1,30.48,South,180,2.7,2.7,80,0.00,,---,0.00,VWS V14.01,2013-02-17 10:05:00,
2013-02-17 02:10:00,40.0,34.0,30.48,South,180,1.1,1.1,79,0.00,,---,0.00,VWS V14.01,2013-02-17 10:10:00,
2013-02-17 02:15:00,40.0,34.3,30.48,South,180,4.0,4.0,80,0.00,,---,0.00,VWS V14.01,2013-02-17 10:15:00,
2013-02-17 02:20:00,40.0,34.3,30.48,SSE,158,8.5,8.5,80,0.00,,---,0.00,VWS V14.01,2013-02-17 10:20:00,
2013-02-17 02:25:00,40.1,34.4,30.48,South,180,5.1,5.1,80,0.00,,---,0.00,VWS V14.01,2013-02-17 10:25:00,
2013-02-17 02:30:00,40.1,34.4,30.48,South,180,2.7,2.7,80,0.00,,---,0.00,VWS V14.01,2013-02-17 10:30:00,
2013-02-17 02:35:00,40.3,34.6,30.48,SSE,158,4.0,4.0,80,0.00,,---,0.00,VWS V14.01,2013-02-17 10:35:00,
2013-02-17 02:40:00,40.3,34.6,30.47,WSW,248,3.1,3.1,80,0.00,,---,0.00,VWS V14.01,2013-02-17 10:40:00,
2013-02-17 02:45:00,40.1,34.4,30.47,South,180,2.5,2.5,80,0.00,,---,0.00,VWS V14.01,2013-02-17 10:45:00,
2013-02-17 02:50:00,40.0,34.3,30.47,South,180,0.7,0.7,80,0.00,,---,0.00,VWS V14.01,2013-02-17 10:50:00,
2013-02-17 02:55:00,39.6,34.0,30.47,South,180,3.8,3.8,80,0.00,,---,0.02,VWS V14.01,2013-02-17 10:55:00,
2013-02-17 03:00:00,39.6,34.3,30.47,South,180,2.7,2.7,81,0.00,,---,0.00,VWS V14.01,2013-02-17 11:00:00,
2013-02-17 03:05:00,39.6,34.3,30.47,South,180,1.3,1.3,81,0.00,,---,0.00,VWS V14.01,2013-02-17 11:05:00,
2013-02-17 03:10:00,39.6,34.3,30.47,South,180,1.8,1.8,81,0.00,,---,0.00,VWS V14.01,2013-02-17 11:10:00,
2013-02-17 03:15:00,39.6,34.3,30.47,South,180,1.1,1.1,81,0.00,,---,0.00,VWS V14.01,2013-02-17 11:15:00,
2013-02-17 03:20:00,39.6,34.3,30.47,South,180,0.0,0.0,81,0.00,,---,0.00,VWS V14.01,2013-02-17 11:20:00,
2013-02-17 03:25:00,39.8,34.5,30.47,South,180,0.4,0.4,81,0.00,,---,0.00,VWS V14.01,2013-02-17 11:25:00,
2013-02-17 03:30:00,39.8,34.5,30.47,South,180,2.0,2.0,81,0.00,,---,0.00,VWS V14.01,2013-02-17 11:30:00,
2013-02-17 03:35:00,39.6,34.3,30.47,South,180,1.6,1.6,81,0.00,,---,0.00,VWS V14.01,2013-02-17 11:35:00,
2013-02-17 03:40:00,39.8,34.1,30.47,South,180,2.2,2.2,80,0.00,,---,0.00,VWS V14.01,2013-02-17 11:40:00,
2013-02-17 03:45:00,40.0,34.3,30.46,South,180,6.3,6.3,80,0.00,,---,0.00,VWS V14.01,2013-02-17 11:45:00,
2013-02-17 03:50:00,40.0,34.3,30.46,South,180,1.1,1.1,80,0.00,,---,0.00,VWS V14.01,2013-02-17 11:50:00,
2013-02-17 03:55:00,39.8,34.1,30.46,South,180,1.1,1.1,80,0.00,,---,0.00,VWS V14.01,2013-02-17 11:55:00,
2013-02-17 04:00:00,39.8,34.1,30.46,South,180,0.9,0.9,80,0.00,,---,0.00,VWS V14.01,2013-02-17 12:00:00,
2013-02-17 04:05:00,39.8,34.1,30.46,South,180,2.0,2.0,80,0.00,,---,0.00,VWS V14.01,2013-02-17 12:05:00,
2013-02-17 04:10:00,39.8,34.1,30.46,South,180,0.0,0.0,80,0.00,,---,0.00,VWS V14.01,2013-02-17 12:10:00,
2013-02-17 04:15:00,39.6,34.0,30.46,South,180,1.1,1.1,80,0.00,,---,0.00,VWS V14.01,2013-02-17 12:15:00,
2013-02-17 04:20:00,39.2,33.6,30.46,South,180,0.0,0.0,80,0.00,,---,0.00,VWS V14.01,2013-02-17 12:20:00,
2013-02-17 04:25:00,39.1,33.5,30.46,South,180,0.4,0.4,80,0.00,,---,0.00,VWS V14.01,2013-02-17 12:25:00,
2013-02-17 04:30:00,38.9,33.6,30.46,South,180,0.0,0.0,81,0.00,,---,0.00,VWS V14.01,2013-02-17 12:30:00,
2013-02-17 04:35:00,38.7,33.7,30.46,South,180,1.1,1.1,82,0.00,,---,0.00,VWS V14.01,2013-02-17 12:35:00,
2013-02-17 04:40:00,38.7,33.7,30.46,South,180,0.2,0.2,82,0.00,,---,0.00,VWS V14.01,2013-02-17 12:40:00,
2013-02-17 04:45:00,38.7,33.7,30.46,South,180,0.4,0.4,82,0.00,,---,0.00,VWS V14.01,2013-02-17 12:45:00,
2013-02-17 04:50:00,38.7,33.7,30.46,South,180,1.1,1.1,82,0.00,,---,0.00,VWS V14.01,2013-02-17 12:50:00,
2013-02-17 04:55:00,38.5,33.8,30.47,South,180,0.0,0.0,83,0.00,,---,0.00,VWS V14.01,2013-02-17 12:55:00,
2013-02-17 05:00:00,38.2,33.5,30.47,South,180,0.2,0.2,83,0.00,,---,0.00,VWS V14.01,2013-02-17 13:00:00,
2013-02-17 05:05:00,38.0,33.3,30.46,South,180,0.0,0.0,83,0.00,,---,0.00,VWS V14.01,2013-02-17 13:05:00,
2013-02-17 05:10:00,37.8,33.4,30.46,South,180,0.0,0.0,84,0.00,,---,0.00,VWS V14.01,2013-02-17 13:10:00,
2013-02-17 05:15:00,37.8,33.4,30.47,South,180,0.9,0.9,84,0.00,,---,0.00,VWS V14.01,2013-02-17 13:15:00,
2013-02-17 05:20:00,37.8,33.4,30.46,South,180,0.7,0.7,84,0.00,,---,0.00,VWS V14.01,2013-02-17 13:20:00,
2013-02-17 05:25:00,37.8,33.4,30.46,South,180,0.9,0.9,84,0.00,,---,0.00,VWS V14.01,2013-02-17 13:25:00,
2013-02-17 05:30:00,37.8,33.4,30.46,South,180,0.9,1.1,84,0.00,,---,0.00,VWS V14.01,2013-02-17 13:30:00,
2013-02-17 05:35:00,38.2,33.8,30.47,South,180,0.4,0.4,84,0.00,,---,0.00,VWS V14.01,2013-02-17 13:35:00,
2013-02-17 05:40:00,38.3,33.6,30.47,South,180,3.4,3.4,83,0.00,,---,0.00,VWS V14.01,2013-02-17 13:40:00,
2013-02-17 05:45:00,38.2,33.5,30.47,South,180,1.6,1.6,83,0.00,,---,0.00,VWS V14.01,2013-02-17 13:45:00,
2013-02-17 05:50:00,37.8,33.1,30.47,South,180,0.0,0.0,83,0.00,,---,0.00,VWS V14.01,2013-02-17 13:50:00,
2013-02-17 05:55:00,37.8,33.4,30.47,South,180,1.3,1.3,84,0.00,,---,0.00,VWS V14.01,2013-02-17 13:55:00,
2013-02-17 05:59:00,37.6,33.2,30.48,South,180,2.2,2.2,84,0.00,,---,0.00,VWS V14.01,2013-02-17 13:59:00,
2013-02-17 06:04:00,37.3,32.9,30.48,South,180,1.8,1.8,84,0.00,,---,0.00,VWS V14.01,2013-02-17 14:04:00,
2013-02-17 06:09:00,37.1,32.7,30.48,South,180,1.1,1.1,84,0.00,,---,0.00,VWS V14.01,2013-02-17 14:09:00,
2013-02-17 06:14:00,36.9,32.5,30.48,South,180,1.6,1.6,84,0.00,,---,0.00,VWS V14.01,2013-02-17 14:14:00,
2013-02-17 06:19:00,36.7,32.3,30.48,South,180,1.8,2.5,84,0.00,,---,0.00,VWS V14.01,2013-02-17 14:19:00,
2013-02-17 06:24:00,36.7,32.6,30.48,South,180,1.1,1.1,85,0.00,,---,0.00,VWS V14.01,2013-02-17 14:24:00,
2013-02-17 06:29:00,36.5,32.4,30.48,South,180,0.7,1.8,85,0.00,,---,0.00,VWS V14.01,2013-02-17 14:29:00,
2013-02-17 06:34:00,36.4,32.3,30.48,South,180,1.1,2.7,85,0.00,,---,0.00,VWS V14.01,2013-02-17 14:34:00,
2013-02-17 06:39:00,36.2,32.1,30.48,South,180,0.4,0.4,85,0.00,,---,0.00,VWS V14.01,2013-02-17 14:39:00,
2013-02-17 06:44:00,36.2,32.4,30.48,South,180,0.2,1.8,86,0.00,,---,0.00,VWS V14.01,2013-02-17 14:44:00,
2013-02-17 06:49:00,36.0,32.2,30.47,South,180,1.1,1.1,86,0.00,,---,0.00,VWS V14.01,2013-02-17 14:49:00,
2013-02-17 06:54:00,35.6,31.5,30.47,South,180,1.1,1.1,85,0.00,,---,0.02,VWS V14.01,2013-02-17 14:54:00,
2013-02-17 06:59:00,35.6,31.5,30.47,South,180,1.8,1.8,85,0.00,,---,0.00,VWS V14.01,2013-02-17 14:59:00,
2013-02-17 07:04:00,35.5,31.5,30.47,South,180,2.2,2.2,85,0.00,,---,0.00,VWS V14.01,2013-02-17 15:04:00,
2013-02-17 07:09:00,35.5,31.7,30.46,South,180,0.0,0.0,86,0.00,,---,0.00,VWS V14.01,2013-02-17 15:09:00,
2013-02-17 07:14:00,35.5,31.7,30.46,South,180,1.3,1.3,86,0.00,,---,0.00,VWS V14.01,2013-02-17 15:14:00,
2013-02-17 07:19:00,35.5,31.7,30.47,South,180,0.4,0.4,86,0.00,,---,0.00,VWS V14.01,2013-02-17 15:19:00,
2013-02-17 07:24:00,35.6,31.8,30.47,South,180,1.1,1.3,86,0.00,,---,0.00,VWS V14.01,2013-02-17 15:24:00,
2013-02-17 07:29:00,35.6,31.8,30.47,South,180,2.5,2.5,86,0.00,,---,0.00,VWS V14.01,2013-02-17 15:29:00,
2013-02-17 07:34:00,35.8,32.6,30.47,South,180,1.8,1.8,88,0.00,,---,0.00,VWS V14.01,2013-02-17 15:34:00,
2013-02-17 07:39:00,36.4,33.2,30.48,South,180,1.6,3.4,88,0.00,,---,0.00,VWS V14.01,2013-02-17 15:39:00,
2013-02-17 07:44:00,36.7,33.2,30.48,South,180,0.0,0.0,87,0.00,,---,0.00,VWS V14.01,2013-02-17 15:44:00,
2013-02-17 07:49:00,36.7,33.2,30.48,South,180,0.4,1.8,87,0.00,,---,0.00,VWS V14.01,2013-02-17 15:49:00,
2013-02-17 07:54:00,36.7,33.2,30.48,South,180,0.9,0.9,87,0.00,,---,0.00,VWS V14.01,2013-02-17 15:54:00,
2013-02-17 07:59:00,36.9,33.4,30.48,South,180,1.8,1.8,87,0.00,,---,0.00,VWS V14.01,2013-02-17 15:59:00,
2013-02-17 08:04:00,37.1,33.6,30.48,South,180,1.1,1.1,87,0.00,,---,0.00,VWS V14.01,2013-02-17 16:04:00,
2013-02-17 08:09:00,37.1,33.6,30.48,South,180,0.7,0.7,87,0.00,,---,0.00,VWS V14.01,2013-02-17 16:09:00,
2013-02-17 08:14:00,37.1,33.6,30.48,South,180,0.2,0.2,87,0.00,,---,0.00,VWS V14.01,2013-02-17 16:14:00,
2013-02-17 08:19:00,37.3,33.8,30.48,South,180,0.0,0.0,87,0.00,,---,0.00,VWS V14.01,2013-02-17 16:19:00,
2013-02-17 08:24:00,37.4,33.9,30.48,South,180,0.0,0.0,87,0.00,,---,0.00,VWS V14.01,2013-02-17 16:24:00,
2013-02-17 08:29:00,37.6,34.1,30.48,South,180,0.4,0.4,87,0.00,,---,0.00,VWS V14.01,2013-02-17 16:29:00,
2013-02-17 08:34:00,38.0,34.5,30.48,South,180,1.1,1.1,87,0.00,,---,0.00,VWS V14.01,2013-02-17 16:34:00,
2013-02-17 08:39:00,38.2,34.7,30.48,South,180,0.4,2.0,87,0.00,,---,0.00,VWS V14.01,2013-02-17 16:39:00,
2013-02-17 08:44:00,38.3,34.8,30.48,South,180,0.0,0.4,87,0.00,,---,0.00,VWS V14.01,2013-02-17 16:44:00,
2013-02-17 08:49:00,38.5,34.7,30.48,South,180,1.1,1.1,86,0.00,,---,0.00,VWS V14.01,2013-02-17 16:49:00,
2013-02-17 08:54:00,38.9,35.1,30.48,South,180,1.1,1.6,86,0.00,,---,0.00,VWS V14.01,2013-02-17 16:54:00,
2013-02-17 08:59:00,39.2,35.4,30.48,South,180,0.7,0.7,86,0.00,,---,0.00,VWS V14.01,2013-02-17 16:59:00,
2013-02-17 09:04:00,39.6,35.5,30.48,South,180,0.0,0.0,85,0.00,,---,0.00,VWS V14.01,2013-02-17 17:04:00,
2013-02-17 09:09:00,39.8,35.4,30.48,South,180,0.4,0.4,84,0.00,,---,0.00,VWS V14.01,2013-02-17 17:09:00,
2013-02-17 09:14:00,40.1,35.7,30.48,South,180,2.5,2.5,84,0.00,,---,0.00,VWS V14.01,2013-02-17 17:14:00,
2013-02-17 09:19:00,40.5,35.8,30.48,South,180,1.1,1.1,83,0.00,,---,0.00,VWS V14.01,2013-02-17 17:19:00,
2013-02-17 09:24:00,40.7,35.6,30.48,South,180,4.5,4.5,82,0.00,,---,0.00,VWS V14.01,2013-02-17 17:24:00,
2013-02-17 09:29:00,40.9,35.5,30.48,South,180,2.5,2.5,81,0.00,,---,0.00,VWS V14.01,2013-02-17 17:29:00,
2013-02-17 09:34:00,41.2,35.8,30.48,South,180,1.1,1.1,81,0.00,,---,0.00,VWS V14.01,2013-02-17 17:34:00,
2013-02-17 09:39:00,41.4,35.7,30.48,South,180,3.8,3.8,80,0.00,,---,0.00,VWS V14.01,2013-02-17 17:39:00,
2013-02-17 09:44:00,41.4,35.1,30.48,South,180,7.6,7.6,78,0.00,,---,0.00,VWS V14.01,2013-02-17 17:44:00,
2013-02-17 09:49:00,41.6,35.3,30.48,South,180,5.4,5.4,78,0.00,,---,0.00,VWS V14.01,2013-02-17 17:49:00,
2013-02-17 09:54:00,41.8,35.8,30.48,South,180,2.2,5.4,79,0.00,,---,0.00,VWS V14.01,2013-02-17 17:54:00,
2013-02-17 09:59:00,41.9,35.5,30.48,South,180,7.6,7.6,78,0.00,,---,0.00,VWS V14.01,2013-02-17 17:59:00,
2013-02-17 10:04:00,41.9,35.5,30.48,South,180,2.5,2.5,78,0.00,,---,0.00,VWS V14.01,2013-02-17 18:04:00,
2013-02-17 10:09:00,42.1,36.1,30.48,South,180,6.5,6.5,79,0.00,,---,0.00,VWS V14.01,2013-02-17 18:09:00,
2013-02-17 10:14:00,42.3,35.9,30.48,South,180,4.0,4.0,78,0.00,,---,0.00,VWS V14.01,2013-02-17 18:14:00,
2013-02-17 10:19:00,42.5,36.5,30.48,South,180,2.7,2.7,79,0.00,,---,0.00,VWS V14.01,2013-02-17 18:19:00,
2013-02-17 10:24:00,42.5,36.1,30.48,South,180,9.2,9.2,78,0.00,,---,0.00,VWS V14.01,2013-02-17 18:24:00,
2013-02-17 10:29:00,42.7,36.0,30.48,South,180,4.0,4.0,77,0.00,,---,0.00,VWS V14.01,2013-02-17 18:29:00,
2013-02-17 10:34:00,43.2,35.8,30.48,South,180,4.5,4.5,75,0.00,,---,0.00,VWS V14.01,2013-02-17 18:34:00,
2013-02-17 10:39:00,43.2,36.5,30.48,South,180,0.9,0.9,77,0.00,,---,0.00,VWS V14.01,2013-02-17 18:39:00,
2013-02-17 10:44:00,44.1,36.7,30.48,South,180,5.1,5.1,75,0.00,,---,0.00,VWS V14.01,2013-02-17 18:44:00,
2013-02-17 10:49:00,44.3,36.5,30.48,South,180,3.4,3.4,74,0.00,,---,0.00,VWS V14.01,2013-02-17 18:49:00,
2013-02-17 10:54:00,44.1,36.4,30.48,South,180,4.3,4.3,74,0.00,,---,0.00,VWS V14.01,2013-02-17 18:54:00,
2013-02-17 10:59:00,44.1,36.0,30.48,South,180,3.4,3.4,73,0.00,,---,0.00,VWS V14.01,2013-02-17 18:59:00,
2013-02-17 11:04:00,44.3,36.5,30.48,South,180,4.9,4.9,74,0.00,,---,0.00,VWS V14.01,2013-02-17 19:04:00,
2013-02-17 11:09:00,44.1,36.4,30.48,WSW,248,4.7,4.7,74,0.00,,---,0.00,VWS V14.01,2013-02-17 19:09:00,
2013-02-17 11:14:00,44.1,36.0,30.48,South,180,3.6,3.6,73,0.00,,---,0.00,VWS V14.01,2013-02-17 19:14:00,
2013-02-17 11:19:00,43.7,34.9,30.48,South,180,3.4,3.4,71,0.00,,---,0.00,VWS V14.01,2013-02-17 19:19:00,
2013-02-17 11:24:00,43.9,35.8,30.48,South,180,3.6,3.6,73,0.00,,---,0.00,VWS V14.01,2013-02-17 19:24:00,
2013-02-17 11:29:00,44.5,36.0,30.48,South,180,4.0,4.0,72,0.00,,---,0.00,VWS V14.01,2013-02-17 19:29:00,
2013-02-17 11:34:00,44.6,35.1,30.47,South,180,5.4,5.4,69,0.00,,---,0.00,VWS V14.01,2013-02-17 19:34:00,
2013-02-17 11:39:00,45.7,35.4,30.47,South,180,5.1,5.1,67,0.00,,---,0.00,VWS V14.01,2013-02-17 19:39:00,
2013-02-17 11:44:00,45.7,35.4,30.48,South,180,1.8,1.8,67,0.00,,---,0.00,VWS V14.01,2013-02-17 19:44:00,
2013-02-17 11:49:00,46.1,36.1,30.47,South,180,3.4,3.4,68,0.00,,---,0.00,VWS V14.01,2013-02-17 19:49:00,
2013-02-17 11:54:00,46.4,36.4,30.47,South,180,1.8,2.2,68,0.00,,---,0.00,VWS V14.01,2013-02-17 19:54:00,
2013-02-17 11:59:00,46.6,36.6,30.47,South,180,1.6,1.6,68,0.00,,---,0.00,VWS V14.01,2013-02-17 19:59:00,
2013-02-17 12:04:00,46.8,37.2,30.47,South,180,1.1,1.1,69,0.00,,---,0.00,VWS V14.01,2013-02-17 20:04:00,
2013-02-17 12:09:00,46.6,34.3,30.47,South,180,1.1,1.1,62,0.00,,---,0.00,VWS V14.01,2013-02-17 20:09:00,
2013-02-17 12:14:00,46.4,35.3,30.47,South,180,2.0,2.0,65,0.00,,---,0.00,VWS V14.01,2013-02-17 20:14:00,
2013-02-17 12:19:00,46.6,35.9,30.46,South,180,4.3,4.3,66,0.00,,---,0.00,VWS V14.01,2013-02-17 20:19:00,
2013-02-17 12:24:00,46.4,35.3,30.46,South,180,1.8,1.8,65,0.00,,---,0.00,VWS V14.01,2013-02-17 20:24:00,
2013-02-17 12:29:00,46.4,35.3,30.46,South,180,0.4,0.4,65,0.00,,---,0.00,VWS V14.01,2013-02-17 20:29:00,
2013-02-17 12:34:00,46.4,34.9,30.46,South,180,1.3,1.3,64,0.00,,---,0.00,VWS V14.01,2013-02-17 20:34:00,
2013-02-17 12:39:00,46.4,35.7,30.46,South,180,0.4,0.4,66,0.00,,---,0.00,VWS V14.01,2013-02-17 20:39:00,
2013-02-17 12:44:00,46.3,35.6,30.46,South,180,4.0,4.0,66,0.00,,---,0.00,VWS V14.01,2013-02-17 20:44:00,
2013-02-17 12:49:00,46.1,34.2,30.46,South,180,3.8,3.8,63,0.00,,---,0.00,VWS V14.01,2013-02-17 20:49:00,
2013-02-17 12:54:00,45.9,34.4,30.45,South,180,4.0,4.0,64,0.00,,---,0.00,VWS V14.01,2013-02-17 20:54:00,
2013-02-17 12:59:00,45.9,34.0,30.45,South,180,1.8,1.8,63,0.00,,---,0.00,VWS V14.01,2013-02-17 20:59:00,
2013-02-17 13:04:00,45.9,33.6,30.45,South,180,1.6,1.6,62,0.00,,---,0.00,VWS V14.01,2013-02-17 21:04:00,
2013-02-17 13:09:00,45.9,34.0,30.45,South,180,1.1,1.1,63,0.00,,---,0.00,VWS V14.01,2013-02-17 21:09:00,
2013-02-17 13:14:00,46.8,34.9,30.45,South,180,3.4,3.4,63,0.00,,---,0.00,VWS V14.01,2013-02-17 21:14:00,
2013-02-17 13:19:00,47.2,34.5,30.45,South,180,1.8,1.8,61,0.00,,---,0.00,VWS V14.01,2013-02-17 21:19:00,
2013-02-17 13:24:00,46.6,34.3,30.45,South,180,1.1,1.1,62,0.00,,---,0.00,VWS V14.01,2013-02-17 21:24:00,
2013-02-17 13:29:00,46.8,34.9,30.45,South,180,1.1,1.1,63,0.00,,---,0.00,VWS V14.01,2013-02-17 21:29:00,
2013-02-17 13:34:00,47.0,34.7,30.45,South,180,3.8,3.8,62,0.00,,---,0.00,VWS V14.01,2013-02-17 21:34:00,
2013-02-17 13:39:00,46.6,34.7,30.45,South,180,2.5,2.5,63,0.00,,---,0.00,VWS V14.01,2013-02-17 21:39:00,
2013-02-17 13:44:00,46.4,34.9,30.45,South,180,4.3,4.3,64,0.00,,---,0.00,VWS V14.01,2013-02-17 21:44:00,
2013-02-17 13:49:00,46.4,35.3,30.45,South,180,1.1,1.1,65,0.00,,---,0.00,VWS V14.01,2013-02-17 21:49:00,
2013-02-17 13:54:00,46.6,35.5,30.45,South,180,0.2,0.2,65,0.00,,---,0.00,VWS V14.01,2013-02-17 21:54:00,
2013-02-17 13:59:00,46.6,35.5,30.45,South,180,0.9,0.9,65,0.00,,---,0.00,VWS V14.01,2013-02-17 21:59:00,
2013-02-17 14:04:00,46.8,35.7,30.45,South,180,1.1,1.1,65,0.00,,---,0.00,VWS V14.01,2013-02-17 22:04:00,
2013-02-17 14:09:00,46.4,34.9,30.44,South,180,0.9,0.9,64,0.00,,---,0.00,VWS V14.01,2013-02-17 22:09:00,
2013-02-17 14:14:00,46.8,35.7,30.44,South,180,1.8,1.8,65,0.00,,---,0.00,VWS V14.01,2013-02-17 22:14:00,
2013-02-17 14:19:00,47.2,36.4,30.44,South,180,4.0,4.0,66,0.00,,---,0.00,VWS V14.01,2013-02-17 22:19:00,
2013-02-17 14:24:00,47.5,36.3,30.44,South,180,3.1,3.1,65,0.00,,---,0.00,VWS V14.01,2013-02-17 22:24:00,
2013-02-17 14:29:00,47.9,36.3,30.44,South,180,0.4,4.0,64,0.00,,---,0.00,VWS V14.01,2013-02-17 22:29:00,
2013-02-17 14:34:00,47.9,36.3,30.43,South,180,1.3,1.3,64,0.00,,---,0.00,VWS V14.01,2013-02-17 22:34:00,
2013-02-17 14:39:00,47.7,35.3,30.43,South,180,1.1,1.1,62,0.00,,---,0.00,VWS V14.01,2013-02-17 22:39:00,
2013-02-17 14:44:00,47.5,35.5,30.43,South,180,1.1,1.1,63,0.00,,---,0.00,VWS V14.01,2013-02-17 22:44:00,
2013-02-17 14:49:00,47.7,36.1,30.43,South,180,2.2,2.2,64,0.00,,---,0.00,VWS V14.01,2013-02-17 22:49:00,
2013-02-17 14:54:00,47.7,36.5,30.43,South,180,0.0,0.0,65,0.00,,---,0.00,VWS V14.01,2013-02-17 22:54:00,
2013-02-17 14:59:00,47.7,36.5,30.43,South,180,2.5,2.5,65,0.00,,---,0.00,VWS V14.01,2013-02-17 22:59:00,
2013-02-17 15:04:00,47.5,35.9,30.43,South,180,1.8,1.8,64,0.00,,---,0.00,VWS V14.01,2013-02-17 23:04:00,
2013-02-17 15:09:00,47.5,35.9,30.43,South,180,2.7,2.7,64,0.00,,---,0.00,VWS V14.01,2013-02-17 23:09:00,
2013-02-17 15:14:00,47.3,36.2,30.43,South,180,2.7,2.7,65,0.00,,---,0.00,VWS V14.01,2013-02-17 23:14:00,
2013-02-17 15:19:00,47.0,35.1,30.43,South,180,0.0,0.0,63,0.00,,---,0.00,VWS V14.01,2013-02-17 23:19:00,
2013-02-17 15:24:00,46.8,34.9,30.43,South,180,0.2,0.2,63,0.00,,---,0.00,VWS V14.01,2013-02-17 23:24:00,
2013-02-17 15:29:00,46.8,35.3,30.43,South,180,0.7,0.7,64,0.00,,---,0.00,VWS V14.01,2013-02-17 23:29:00,
2013-02-17 15:34:00,46.8,35.7,30.43,South,180,0.9,0.9,65,0.00,,---,0.00,VWS V14.01,2013-02-17 23:34:00,
2013-02-17 15:39:00,46.8,36.0,30.43,South,180,1.8,1.8,66,0.00,,---,0.00,VWS V14.01,2013-02-17 23:39:00,
2013-02-17 15:44:00,46.4,34.5,30.43,South,180,1.1,1.1,63,0.00,,---,0.00,VWS V14.01,2013-02-17 23:44:00,
2013-02-17 15:49:00,45.9,34.8,30.43,South,180,1.1,1.1,65,0.00,,---,0.00,VWS V14.01,2013-02-17 23:49:00,
2013-02-17 15:54:00,45.5,34.4,30.43,South,180,1.1,1.1,65,0.00,,---,0.00,VWS V14.01,2013-02-17 23:54:00,
2013-02-17 15:59:00,45.4,35.1,30.43,South,180,0.4,0.4,67,0.00,,---,0.00,VWS V14.01,2013-02-17 23:59:00,
2013-02-17 16:04:00,45.4,35.1,30.43,South,180,0.0,0.0,67,0.00,,---,0.00,VWS V14.01,2013-02-18 00:04:00,
2013-02-17 16:09:00,45.2,34.9,30.43,South,180,1.1,1.1,67,0.00,,---,0.00,VWS V14.01,2013-02-18 00:09:00,
2013-02-17 16:14:00,45.0,35.1,30.43,South,180,0.7,0.7,68,0.00,,---,0.00,VWS V14.01,2013-02-18 00:14:00,
2013-02-17 16:19:00,45.0,35.1,30.42,South,180,2.0,2.0,68,0.00,,---,0.00,VWS V14.01,2013-02-18 00:19:00,
2013-02-17 16:24:00,45.0,35.1,30.42,South,180,1.1,1.1,68,0.00,,---,0.00,VWS V14.01,2013-02-18 00:24:00,
2013-02-17 16:29:00,45.0,35.5,30.42,South,180,0.0,0.0,69,0.00,,---,0.00,VWS V14.01,2013-02-18 00:29:00,
2013-02-17 16:34:00,45.0,35.5,30.42,South,180,0.0,0.0,69,0.00,,---,0.00,VWS V14.01,2013-02-18 00:34:00,
2013-02-17 16:39:00,45.0,35.5,30.41,South,180,0.4,0.4,69,0.00,,---,0.00,VWS V14.01,2013-02-18 00:39:00,
2013-02-17 16:44:00,45.0,35.5,30.41,South,180,0.0,0.0,69,0.00,,---,0.00,VWS V14.01,2013-02-18 00:44:00,
2013-02-17 16:49:00,45.0,35.5,30.41,South,180,1.1,1.1,69,0.00,,---,0.00,VWS V14.01,2013-02-18 00:49:00,
2013-02-17 16:54:00,44.8,35.3,30.41,South,180,1.1,1.1,69,0.00,,---,0.00,VWS V14.01,2013-02-18 00:54:00,
2013-02-17 16:59:00,44.6,35.1,30.40,South,180,0.0,0.0,69,0.00,,---,0.00,VWS V14.01,2013-02-18 00:59:00,
2013-02-17 17:04:00,44.5,35.3,30.41,South,180,0.7,0.7,70,0.00,,---,0.00,VWS V14.01,2013-02-18 01:04:00,
2013-02-17 17:09:00,44.3,35.2,30.40,South,180,0.4,0.4,70,0.00,,---,0.00,VWS V14.01,2013-02-18 01:09:00,
2013-02-17 17:14:00,44.1,35.0,30.40,South,180,0.4,0.4,70,0.00,,---,0.00,VWS V14.01,2013-02-18 01:14:00,
2013-02-17 17:19:00,43.9,35.1,30.40,South,180,0.0,0.0,71,0.00,,---,0.00,VWS V14.01,2013-02-18 01:19:00,
2013-02-17 17:24:00,43.9,35.1,30.40,South,180,0.0,0.0,71,0.00,,---,0.00,VWS V14.01,2013-02-18 01:24:00,
2013-02-17 17:29:00,43.7,34.9,30.40,South,180,0.0,0.0,71,0.00,,---,0.00,VWS V14.01,2013-02-18 01:29:00,
2013-02-17 17:34:00,43.6,34.8,30.40,South,180,0.0,0.0,71,0.00,,---,0.00,VWS V14.01,2013-02-18 01:34:00,
2013-02-17 17:39:00,43.6,34.8,30.40,South,180,0.0,0.0,71,0.00,,---,0.00,VWS V14.01,2013-02-18 01:39:00,
2013-02-17 17:44:00,43.4,35.0,30.40,South,180,0.0,0.0,72,0.00,,---,0.00,VWS V14.01,2013-02-18 01:44:00,
2013-02-17 17:49:00,43.2,34.8,30.40,South,180,0.0,0.0,72,0.00,,---,0.00,VWS V14.01,2013-02-18 01:49:00,
2013-02-17 17:54:00,43.0,35.0,30.40,South,180,0.0,0.0,73,0.00,,---,0.00,VWS V14.01,2013-02-18 01:54:00,
2013-02-17 17:59:00,42.8,34.8,30.40,South,180,0.0,0.0,73,0.00,,---,0.00,VWS V14.01,2013-02-18 01:59:00,
2013-02-17 18:04:00,42.8,34.8,30.40,South,180,0.0,0.0,73,0.00,,---,0.00,VWS V14.01,2013-02-18 02:04:00,
2013-02-17 18:09:00,42.8,35.1,30.40,South,180,0.4,0.4,74,0.00,,---,0.00,VWS V14.01,2013-02-18 02:09:00,
2013-02-17 18:14:00,42.7,35.0,30.39,South,180,0.7,0.7,74,0.00,,---,0.00,VWS V14.01,2013-02-18 02:14:00,
2013-02-17 18:19:00,42.5,35.2,30.40,South,180,0.7,0.7,75,0.00,,---,0.00,VWS V14.01,2013-02-18 02:19:00,
2013-02-17 18:24:00,42.5,35.2,30.40,South,180,0.7,0.7,75,0.00,,---,0.00,VWS V14.01,2013-02-18 02:24:00,
2013-02-17 18:29:00,42.3,35.3,30.40,South,180,0.0,0.0,76,0.00,,---,0.00,VWS V14.01,2013-02-18 02:29:00,
2013-02-17 18:34:00,42.1,35.1,30.39,South,180,0.0,0.0,76,0.00,,---,0.00,VWS V14.01,2013-02-18 02:34:00,
2013-02-17 18:39:00,42.1,35.1,30.39,South,180,0.4,0.4,76,0.00,,---,0.00,VWS V14.01,2013-02-18 02:39:00,
2013-02-17 18:44:00,42.1,35.4,30.39,South,180,0.4,0.4,77,0.00,,---,0.00,VWS V14.01,2013-02-18 02:44:00,
2013-02-17 18:49:00,41.9,35.2,30.39,South,180,0.7,0.7,77,0.00,,---,0.00,VWS V14.01,2013-02-18 02:49:00,
2013-02-17 18:54:00,41.9,35.2,30.39,South,180,1.1,1.1,77,0.00,,---,0.00,VWS V14.01,2013-02-18 02:54:00,
2013-02-17 18:59:00,41.8,35.1,30.39,South,180,1.3,1.3,77,0.00,,---,0.00,VWS V14.01,2013-02-18 02:59:00,
2013-02-17 19:04:00,41.8,35.5,30.39,South,180,0.9,0.9,78,0.00,,---,0.00,VWS V14.01,2013-02-18 03:04:00,
2013-02-17 19:09:00,41.6,35.3,30.39,South,180,0.0,0.0,78,0.00,,---,0.00,VWS V14.01,2013-02-18 03:09:00,
2013-02-17 19:14:00,41.6,35.3,30.39,South,180,0.9,0.9,78,0.00,,---,0.02,VWS V14.01,2013-02-18 03:14:00,
2013-02-17 19:19:00,41.4,35.4,30.39,South,180,0.0,0.0,79,0.00,,---,0.00,VWS V14.01,2013-02-18 03:19:00,
2013-02-17 19:24:00,41.4,35.4,30.39,South,180,0.7,0.7,79,0.00,,---,0.00,VWS V14.01,2013-02-18 03:24:00,
2013-02-17 19:29:00,41.4,35.4,30.40,South,180,0.0,0.0,79,0.00,,---,0.00,VWS V14.01,2013-02-18 03:29:00,
2013-02-17 19:34:00,41.4,35.4,30.39,South,180,0.4,0.4,79,0.00,,---,0.00,VWS V14.01,2013-02-18 03:34:00,
2013-02-17 19:39:00,41.2,35.5,30.39,South,180,0.0,0.0,80,0.00,,---,0.00,VWS V14.01,2013-02-18 03:39:00,
2013-02-17 19:44:00,41.2,35.5,30.39,South,180,0.0,0.0,80,0.00,,---,0.00,VWS V14.01,2013-02-18 03:44:00,
2013-02-17 19:49:00,41.2,35.5,30.39,South,180,0.0,0.0,80,0.00,,---,0.00,VWS V14.01,2013-02-18 03:49:00,
2013-02-17 19:54:00,41.2,35.5,30.39,South,180,0.0,0.0,80,0.00,,---,0.00,VWS V14.01,2013-02-18 03:54:00,
2013-02-17 19:59:00,41.0,35.6,30.39,South,180,0.0,0.0,81,0.00,,---,0.00,VWS V14.01,2013-02-18 03:59:00,
2013-02-17 20:04:00,41.0,35.6,30.39,South,180,0.0,0.0,81,0.00,,---,0.00,VWS V14.01,2013-02-18 04:04:00,
2013-02-17 20:09:00,41.0,35.6,30.39,South,180,0.0,0.0,81,0.00,,---,0.00,VWS V14.01,2013-02-18 04:09:00,
2013-02-17 20:14:00,40.9,35.5,30.39,South,180,0.0,0.0,81,0.00,,---,0.00,VWS V14.01,2013-02-18 04:14:00,
2013-02-17 20:16:00,40.7,35.3,30.39,South,180,0.0,0.0,81,0.00,,---,0.00,VWS V14.01,2013-02-18 04:16:00,
2013-02-17 20:19:00,40.7,35.3,30.39,South,180,0.0,0.0,81,0.00,,---,0.00,VWS V14.01,2013-02-18 04:19:00,
2013-02-17 20:24:00,40.7,35.3,30.39,South,180,0.0,0.0,81,0.00,,---,0.00,VWS V14.01,2013-02-18 04:24:00,
2013-02-17 20:31:00,40.7,35.3,30.39,South,180,0.0,0.0,81,0.00,,---,0.00,VWS V14.01,2013-02-18 04:31:00,
2013-02-17 20:36:00,40.7,35.3,30.39,South,180,0.0,0.0,81,0.00,,---,0.00,VWS V14.01,2013-02-18 04:36:00,
2013-02-17 20:41:00,40.7,35.3,30.39,South,180,0.0,0.0,81,0.00,,---,0.00,VWS V14.01,2013-02-18 04:41:00,
2013-02-17 20:47:00,40.7,35.3,30.39,South,180,0.0,0.0,81,0.00,,---,0.00,VWS V14.01,2013-02-18 04:47:00,
2013-02-17 20:52:00,40.7,35.3,30.39,South,180,0.0,0.0,81,0.00,,---,0.00,VWS V14.01,2013-02-18 04:52:00,
2013-02-17 20:57:00,40.7,35.3,30.39,South,180,0.0,0.0,81,0.00,,---,0.00,VWS V14.01,2013-02-18 04:57:00,
2013-02-17 21:00:00,40.3,35.2,30.38,South,180,0.0,0.0,82,0.00,,---,0.00,VWS V14.01,2013-02-18 05:00:00,
2013-02-17 21:05:00,40.3,35.6,30.38,South,180,0.0,0.0,83,0.00,,---,0.00,VWS V14.01,2013-02-18 05:05:00,
2013-02-17 21:10:00,40.3,35.2,30.38,South,180,0.0,0.0,82,0.00,,---,0.00,VWS V14.01,2013-02-18 05:10:00,
2013-02-17 21:15:00,40.3,35.2,30.38,South,180,0.0,0.0,82,0.00,,---,0.00,VWS V14.01,2013-02-18 05:15:00,
2013-02-17 21:20:00,40.3,35.2,30.38,South,180,0.0,0.0,82,0.00,,---,0.00,VWS V14.01,2013-02-18 05:20:00,
2013-02-17 21:25:00,40.3,35.2,30.38,South,180,0.0,0.0,82,0.00,,---,0.00,VWS V14.01,2013-02-18 05:25:00,
2013-02-17 21:30:00,40.1,35.1,30.38,South,180,0.0,0.0,82,0.00,,---,0.00,VWS V14.01,2013-02-18 05:30:00,
2013-02-17 21:35:00,40.1,35.4,30.38,South,180,0.7,0.7,83,0.00,,---,0.00,VWS V14.01,2013-02-18 05:35:00,
2013-02-17 21:40:00,40.0,35.3,30.38,South,180,0.0,0.0,83,0.00,,---,0.00,VWS V14.01,2013-02-18 05:40:00,
2013-02-17 21:45:00,40.0,35.3,30.38,South,180,0.0,0.0,83,0.00,,---,0.00,VWS V14.01,2013-02-18 05:45:00,
2013-02-17 21:50:00,40.0,35.3,30.38,South,180,0.0,0.0,83,0.00,,---,0.00,VWS V14.01,2013-02-18 05:50:00,
2013-02-17 21:55:00,40.0,35.3,30.38,South,180,0.0,0.0,83,0.00,,---,0.00,VWS V14.01,2013-02-18 05:55:00,
2013-02-17 22:00:00,40.0,35.3,30.38,South,180,0.0,0.0,83,0.00,,---,0.00,VWS V14.01,2013-02-18 06:00:00,
2013-02-17 22:05:00,40.0,35.3,30.37,South,180,0.0,0.0,83,0.00,,---,0.00,VWS V14.01,2013-02-18 06:05:00,
2013-02-17 22:10:00,40.0,35.6,30.37,South,180,0.0,0.0,84,0.00,,---,0.00,VWS V14.01,2013-02-18 06:10:00,
2013-02-17 22:15:00,40.0,35.6,30.37,South,180,0.0,0.0,84,0.00,,---,0.00,VWS V14.01,2013-02-18 06:15:00,
2013-02-17 22:20:00,40.0,35.6,30.37,South,180,0.0,0.0,84,0.00,,---,0.00,VWS V14.01,2013-02-18 06:20:00,
2013-02-17 22:25:00,40.0,35.6,30.37,South,180,0.0,0.0,84,0.00,,---,0.00,VWS V14.01,2013-02-18 06:25:00,
2013-02-17 22:30:00,40.0,35.6,30.37,South,180,0.0,0.0,84,0.00,,---,0.00,VWS V14.01,2013-02-18 06:30:00,
2013-02-17 22:35:00,39.8,35.4,30.37,South,180,0.0,0.0,84,0.00,,---,0.00,VWS V14.01,2013-02-18 06:35:00,
2013-02-17 22:40:00,39.8,35.4,30.37,South,180,0.0,0.0,84,0.00,,---,0.00,VWS V14.01,2013-02-18 06:40:00,
2013-02-17 22:45:00,39.8,35.4,30.36,South,180,0.0,0.0,84,0.00,,---,0.00,VWS V14.01,2013-02-18 06:45:00,
2013-02-17 22:50:00,39.8,35.4,30.36,South,180,0.0,0.0,84,0.00,,---,0.00,VWS V14.01,2013-02-18 06:50:00,
2013-02-17 22:55:00,39.8,35.4,30.36,South,180,0.0,0.0,84,0.00,,---,0.00,VWS V14.01,2013-02-18 06:55:00,
2013-02-17 23:00:00,39.8,35.4,30.36,South,180,0.0,0.0,84,0.00,,---,0.00,VWS V14.01,2013-02-18 07:00:00,
2013-02-17 23:05:00,39.8,35.4,30.36,South,180,0.0,0.0,84,0.00,,---,0.00,VWS V14.01,2013-02-18 07:05:00,
2013-02-17 23:10:00,39.8,35.4,30.36,South,180,0.0,0.0,84,0.00,,---,0.00,VWS V14.01,2013-02-18 07:10:00,
2013-02-17 23:15:00,39.6,35.2,30.35,South,180,0.0,0.0,84,0.00,,---,0.00,VWS V14.01,2013-02-18 07:15:00,
2013-02-17 23:20:00,39.6,35.2,30.35,South,180,0.0,0.0,84,0.00,,---,0.00,VWS V14.01,2013-02-18 07:20:00,
2013-02-17 23:25:00,39.8,35.4,30.35,South,180,0.0,0.0,84,0.00,,---,0.00,VWS V14.01,2013-02-18 07:25:00,
2013-02-17 23:30:00,39.6,35.2,30.35,South,180,0.0,0.0,84,0.00,,---,0.00,VWS V14.01,2013-02-18 07:30:00,
2013-02-17 23:35:00,39.8,35.7,30.35,South,180,0.0,0.0,85,0.00,,---,0.00,VWS V14.01,2013-02-18 07:35:00,
2013-02-17 23:40:00,39.6,35.5,30.35,South,180,0.0,0.0,85,0.00,,---,0.00,VWS V14.01,2013-02-18 07:40:00,
2013-02-17 23:45:00,39.6,35.5,30.35,South,180,0.0,0.0,85,0.00,,---,0.00,VWS V14.01,2013-02-18 07:45:00,
2013-02-17 23:50:00,39.6,35.5,30.35,South,180,0.0,0.0,85,0.00,,---,0.00,VWS V14.01,2013-02-18 07:50:00,
2013-02-17 23:55:00,39.6,35.5,30.34,South,180,0.0,0.0,85,0.00,,---,0.00,VWS V14.01,2013-02-18 07:55:00,